Time,TemperatureF,DewpointF,PressureIn,WindDirection,WindDirectionDegrees,WindSpeedMPH,WindSpeedGustMPH,Humidity,HourlyPrecipIn,Conditions,Clouds,dailyrainin,SolarRadiationWatts/m^2,SoftwareType,DateUTC
2013-03-26 00:00:00,55.7,42.5,30.01,NW,324,7.0,9.0,61,0.00,,,0.00,0,Wunderground v.1.15,2013-03-26 04:00:00,
2013-03-26 00:01:00,55.7,42.5,30.01,NW,321,7.0,21.0,61,0.00,,,0.00,0,Wunderground v.1.15,2013-03-26 04:01:00,
2013-03-26 00:02:00,55.7,42.9,30.01,NW,317,7.0,21.0,62,0.00,,,0.00,0,Wunderground v.1.15,2013-03-26 04:02:00,
2013-03-26 00:07:00,55.7,43.3,30.02,NW,325,7.0,21.0,63,0.00,,,0.00,0,Wunderground v.1.15,2013-03-26 04:07:00,
2013-03-26 00:13:00,55.9,43.1,30.02,NW,311,8.0,21.0,62,0.00,,,0.00,0,Wunderground v.1.15,2013-03-26 04:13:00,
2013-03-26 00:19:00,55.9,43.1,30.01,NW,311,7.0,21.0,62,0.00,,,0.00,0,Wunderground v.1.15,2013-03-26 04:19:00,
2013-03-26 00:24:00,56.0,43.6,30.01,NW,310,8.0,21.0,63,0.00,,,0.00,0,Wunderground v.1.15,2013-03-26 04:24:00,
2013-03-26 00:30:00,56.0,42.7,30.02,NW,315,10.0,10.0,61,0.00,,,0.00,0,Wunderground v.1.15,2013-03-26 04:30:00,
2013-03-26 00:35:00,56.2,43.8,30.02,WNW,297,9.0,21.0,63,0.00,,,0.00,0,Wunderground v.1.15,2013-03-26 04:35:00,
2013-03-26 00:41:00,56.2,43.3,30.02,NW,306,7.0,9.0,62,0.00,,,0.00,0,Wunderground v.1.15,2013-03-26 04:41:00,
2013-03-26 00:47:00,56.2,43.3,30.01,NW,311,8.0,14.0,62,0.00,,,0.00,0,Wunderground v.1.15,2013-03-26 04:47:00,
2013-03-26 00:52:00,56.3,43.4,30.02,NNW,339,9.0,14.0,62,0.00,,,0.00,0,Wunderground v.1.15,2013-03-26 04:52:00,
2013-03-26 00:57:00,56.4,44.0,30.02,NW,320,9.0,14.0,63,0.00,,,0.00,0,Wunderground v.1.15,2013-03-26 04:57:00,
2013-03-26 01:03:00,56.5,44.9,30.02,NW,316,10.0,21.0,65,0.00,,,0.00,0,Wunderground v.1.15,2013-03-26 05:03:00,
2013-03-26 01:08:00,56.4,44.0,30.02,WNW,301,10.0,21.0,63,0.00,,,0.00,0,Wunderground v.1.15,2013-03-26 05:08:00,
2013-03-26 01:14:00,56.4,44.4,30.03,NW,307,10.0,21.0,64,0.00,,,0.00,0,Wunderground v.1.15,2013-03-26 05:14:00,
2013-03-26 01:20:00,56.4,45.2,30.03,NW,311,9.0,21.0,66,0.00,,,0.00,0,Wunderground v.1.15,2013-03-26 05:20:00,
2013-03-26 01:25:00,56.4,44.8,30.03,NW,326,10.0,21.0,65,0.00,,,0.00,0,Wunderground v.1.15,2013-03-26 05:25:00,
2013-03-26 01:31:00,56.4,45.2,30.03,NNW,331,9.0,21.0,66,0.00,,,0.00,0,Wunderground v.1.15,2013-03-26 05:31:00,
2013-03-26 01:36:00,56.3,45.1,30.03,NW,317,8.0,21.0,66,0.00,,,0.00,0,Wunderground v.1.15,2013-03-26 05:36:00,
2013-03-26 01:42:00,56.4,45.6,30.03,NW,317,7.0,8.0,67,0.00,,,0.00,0,Wunderground v.1.15,2013-03-26 05:42:00,
2013-03-26 01:47:00,56.3,44.7,30.03,NNW,330,7.0,8.0,65,0.00,,,0.00,0,Wunderground v.1.15,2013-03-26 05:47:00,
2013-03-26 01:52:00,56.4,43.5,30.03,NNW,346,8.0,12.0,62,0.00,,,0.00,0,Wunderground v.1.15,2013-03-26 05:52:00,
2013-03-26 01:58:00,56.5,43.2,30.03,NW,323,9.0,12.0,61,0.00,,,0.00,0,Wunderground v.1.15,2013-03-26 05:58:00,
2013-03-26 02:03:00,56.5,42.3,30.03,NNW,329,8.0,21.0,59,0.00,,,0.00,0,Wunderground v.1.15,2013-03-26 06:03:00,
2013-03-26 02:09:00,56.5,41.9,30.03,NNW,333,8.0,21.0,58,0.00,,,0.00,0,Wunderground v.1.15,2013-03-26 06:09:00,
2013-03-26 02:14:00,56.4,41.3,30.03,NNW,328,8.0,21.0,57,0.00,,,0.00,0,Wunderground v.1.15,2013-03-26 06:14:00,
2013-03-26 02:19:00,56.4,40.4,30.03,North,349,9.0,21.0,55,0.00,,,0.00,0,Wunderground v.1.15,2013-03-26 06:19:00,
2013-03-26 02:24:00,56.3,39.4,30.03,NNW,328,9.0,21.0,53,0.00,,,0.00,0,Wunderground v.1.15,2013-03-26 06:24:00,
2013-03-26 02:30:00,56.2,38.8,30.03,NNW,335,9.0,9.0,52,0.00,,,0.00,0,Wunderground v.1.15,2013-03-26 06:30:00,
2013-03-26 02:35:00,56.2,37.8,30.03,NW,318,7.0,21.0,50,0.00,,,0.00,0,Wunderground v.1.15,2013-03-26 06:35:00,
2013-03-26 02:42:00,56.0,36.6,30.03,NNW,342,6.0,6.0,48,0.00,,,0.00,0,Wunderground v.1.15,2013-03-26 06:42:00,
2013-03-26 02:47:00,55.9,37.5,30.03,NNW,334,6.0,10.0,50,0.00,,,0.00,0,Wunderground v.1.15,2013-03-26 06:47:00,
2013-03-26 02:53:00,55.8,33.6,30.03,NNW,331,7.0,13.0,43,0.00,,,0.00,0,Wunderground v.1.15,2013-03-26 06:53:00,
2013-03-26 02:58:00,55.8,32.4,30.03,North,354,11.0,19.0,41,0.00,,,0.00,0,Wunderground v.1.15,2013-03-26 06:58:00,
2013-03-26 03:04:00,55.7,31.7,30.03,North,358,10.0,18.0,40,0.00,,,0.00,0,Wunderground v.1.15,2013-03-26 07:04:00,
2013-03-26 03:10:00,55.5,30.9,30.03,North,349,9.0,18.0,39,0.00,,,0.00,0,Wunderground v.1.15,2013-03-26 07:10:00,
2013-03-26 03:15:00,55.4,30.8,30.03,North,358,9.0,18.0,39,0.00,,,0.00,0,Wunderground v.1.15,2013-03-26 07:15:00,
2013-03-26 03:20:00,55.3,30.7,30.03,North,349,11.0,18.0,39,0.00,,,0.00,0,Wunderground v.1.15,2013-03-26 07:20:00,
2013-03-26 03:26:00,55.2,30.7,30.03,North,5,11.0,18.0,39,0.00,,,0.00,0,Wunderground v.1.15,2013-03-26 07:26:00,
2013-03-26 03:31:00,55.1,30.6,30.03,North,349,12.0,18.0,39,0.00,,,0.00,0,Wunderground v.1.15,2013-03-26 07:31:00,
2013-03-26 03:36:00,55.0,31.7,30.02,North,10,11.0,18.0,41,0.00,,,0.00,0,Wunderground v.1.15,2013-03-26 07:36:00,
2013-03-26 03:42:00,54.8,30.9,30.03,North,11,10.0,14.0,40,0.00,,,0.00,0,Wunderground v.1.15,2013-03-26 07:42:00,
2013-03-26 03:48:00,54.6,30.7,30.03,NNE,20,9.0,14.0,40,0.00,,,0.00,0,Wunderground v.1.15,2013-03-26 07:48:00,
2013-03-26 03:54:00,54.5,31.9,30.03,NNW,348,7.0,9.0,42,0.00,,,0.00,0,Wunderground v.1.15,2013-03-26 07:54:00,
2013-03-26 03:59:00,54.4,31.2,30.03,NW,323,7.0,15.0,41,0.00,,,0.00,0,Wunderground v.1.15,2013-03-26 07:59:00,
2013-03-26 04:04:00,54.4,31.8,30.03,North,358,8.0,22.0,42,0.00,,,0.00,0,Wunderground v.1.15,2013-03-26 08:04:00,
2013-03-26 04:09:00,54.2,30.4,30.03,North,7,7.0,22.0,40,0.00,,,0.00,0,Wunderground v.1.15,2013-03-26 08:09:00,
2013-03-26 04:15:00,53.9,31.3,30.04,North,359,7.0,22.0,42,0.00,,,0.00,0,Wunderground v.1.15,2013-03-26 08:15:00,
2013-03-26 04:20:00,53.7,30.5,30.04,North,9,7.0,22.0,41,0.00,,,0.00,0,Wunderground v.1.15,2013-03-26 08:20:00,
2013-03-26 04:26:00,53.4,29.7,30.04,NNW,327,8.0,22.0,40,0.00,,,0.00,0,Wunderground v.1.15,2013-03-26 08:26:00,
2013-03-26 04:31:00,53.2,29.5,30.05,NNW,327,9.0,12.0,40,0.00,,,0.00,0,Wunderground v.1.15,2013-03-26 08:31:00,
2013-03-26 04:37:00,52.8,29.1,30.05,North,11,11.0,22.0,40,0.00,,,0.00,0,Wunderground v.1.15,2013-03-26 08:37:00,
2013-03-26 04:43:00,52.5,29.5,30.05,North,356,9.0,11.0,41,0.00,,,0.00,0,Wunderground v.1.15,2013-03-26 08:43:00,
2013-03-26 04:48:00,52.1,28.5,30.05,North,352,9.0,15.0,40,0.00,,,0.00,0,Wunderground v.1.15,2013-03-26 08:48:00,
2013-03-26 04:54:00,51.8,28.2,30.05,North,3,10.0,22.0,40,0.00,,,0.00,0,Wunderground v.1.15,2013-03-26 08:54:00,
2013-03-26 04:59:00,51.5,28.6,30.05,NW,317,10.0,22.0,41,0.00,,,0.00,0,Wunderground v.1.15,2013-03-26 08:59:00,
2013-03-26 05:04:00,51.2,27.7,30.06,North,349,11.0,22.0,40,0.00,,,0.00,0,Wunderground v.1.15,2013-03-26 09:04:00,
2013-03-26 05:10:00,50.9,26.8,30.06,North,352,11.0,11.0,39,0.00,,,0.00,0,Wunderground v.1.15,2013-03-26 09:10:00,
2013-03-26 05:15:00,50.6,27.1,30.06,North,349,8.0,22.0,40,0.00,,,0.00,0,Wunderground v.1.15,2013-03-26 09:15:00,
2013-03-26 05:21:00,50.3,26.9,30.06,North,354,6.0,22.0,40,0.00,,,0.00,0,Wunderground v.1.15,2013-03-26 09:21:00,
2013-03-26 05:26:00,50.1,26.1,30.06,NNW,340,7.0,22.0,39,0.00,,,0.00,0,Wunderground v.1.15,2013-03-26 09:26:00,
2013-03-26 05:31:00,50.0,27.2,30.06,NNW,336,8.0,22.0,41,0.00,,,0.00,0,Wunderground v.1.15,2013-03-26 09:31:00,
2013-03-26 05:37:00,49.8,26.4,30.06,NNW,346,8.0,22.0,40,0.00,,,0.00,0,Wunderground v.1.15,2013-03-26 09:37:00,
2013-03-26 05:43:00,49.6,26.8,30.06,NNW,333,7.0,9.0,41,0.00,,,0.00,0,Wunderground v.1.15,2013-03-26 09:43:00,
2013-03-26 05:48:00,49.4,26.7,30.06,NNW,342,7.0,14.0,41,0.00,,,0.00,0,Wunderground v.1.15,2013-03-26 09:48:00,
2013-03-26 05:54:00,49.2,27.6,30.06,NW,324,7.0,11.0,43,0.00,,,0.00,0,Wunderground v.1.15,2013-03-26 09:54:00,
2013-03-26 06:00:00,49.1,27.5,30.07,NNW,344,6.0,6.0,43,0.00,,,0.00,0,Wunderground v.1.15,2013-03-26 10:00:00,
2013-03-26 06:05:00,48.9,27.9,30.07,NNW,329,6.0,24.0,44,0.00,,,0.00,0,Wunderground v.1.15,2013-03-26 10:05:00,
2013-03-26 06:12:00,48.8,27.8,30.07,North,358,7.0,24.0,44,0.00,,,0.00,0,Wunderground v.1.15,2013-03-26 10:12:00,
2013-03-26 06:17:00,48.7,27.7,30.07,NNW,338,7.0,24.0,44,0.00,,,0.00,0,Wunderground v.1.15,2013-03-26 10:17:00,
2013-03-26 06:23:00,48.6,27.6,30.07,NNW,348,7.0,24.0,44,0.00,,,0.00,0,Wunderground v.1.15,2013-03-26 10:23:00,
2013-03-26 06:28:00,48.5,28.1,30.07,NNW,334,6.0,24.0,45,0.00,,,0.00,0,Wunderground v.1.15,2013-03-26 10:28:00,
2013-03-26 06:34:00,48.3,27.9,30.08,NNW,340,7.0,24.0,45,0.00,,,0.00,0,Wunderground v.1.15,2013-03-26 10:34:00,
2013-03-26 06:40:00,48.3,27.9,30.08,North,351,7.0,7.0,45,0.00,,,0.00,0,Wunderground v.1.15,2013-03-26 10:40:00,
2013-03-26 06:46:00,48.1,28.3,30.08,NNW,344,7.0,11.0,46,0.00,,,0.00,0,Wunderground v.1.15,2013-03-26 10:46:00,
2013-03-26 06:52:00,48.0,28.7,30.08,NNW,329,7.0,11.0,47,0.00,,,0.00,0,Wunderground v.1.15,2013-03-26 10:52:00,
2013-03-26 06:58:00,47.9,28.6,30.08,NNW,331,7.0,11.0,47,0.00,,,0.00,0,Wunderground v.1.15,2013-03-26 10:58:00,
2013-03-26 07:03:00,47.7,28.9,30.08,NNW,327,6.0,20.0,48,0.00,,,0.00,0,Wunderground v.1.15,2013-03-26 11:03:00,
2013-03-26 07:09:00,47.6,28.9,30.08,NW,323,7.0,20.0,48,0.00,,,0.00,0,Wunderground v.1.15,2013-03-26 11:09:00,
2013-03-26 07:14:00,47.5,28.8,30.09,NNW,348,8.0,20.0,48,0.00,,,0.00,0,Wunderground v.1.15,2013-03-26 11:14:00,
2013-03-26 07:20:00,47.4,29.2,30.09,North,360,8.0,20.0,49,0.00,,,0.00,0,Wunderground v.1.15,2013-03-26 11:20:00,
2013-03-26 07:25:00,47.3,29.1,30.09,WNW,297,7.0,20.0,49,0.00,,,0.00,5,Wunderground v.1.15,2013-03-26 11:25:00,
2013-03-26 07:30:00,47.1,29.4,30.09,NW,325,6.0,6.0,50,0.00,,,0.00,9,Wunderground v.1.15,2013-03-26 11:30:00,
2013-03-26 07:37:00,47.0,29.8,30.10,North,349,7.0,20.0,51,0.00,,,0.00,18,Wunderground v.1.15,2013-03-26 11:37:00,
2013-03-26 07:43:00,47.0,29.3,30.10,North,352,8.0,9.0,50,0.00,,,0.00,25,Wunderground v.1.15,2013-03-26 11:43:00,
2013-03-26 07:48:00,47.0,29.8,30.10,North,352,8.0,9.0,51,0.00,,,0.00,32,Wunderground v.1.15,2013-03-26 11:48:00,
2013-03-26 07:54:00,46.9,29.7,30.10,NNW,340,8.0,16.0,51,0.00,,,0.00,40,Wunderground v.1.15,2013-03-26 11:54:00,
2013-03-26 07:59:00,47.0,30.7,30.10,North,352,7.0,17.0,53,0.00,,,0.00,56,Wunderground v.1.15,2013-03-26 11:59:00,
2013-03-26 08:04:00,47.0,29.8,30.11,NNW,328,8.0,19.0,51,0.00,,,0.00,65,Wunderground v.1.15,2013-03-26 12:04:00,
2013-03-26 08:10:00,47.1,30.4,30.11,North,356,8.0,19.0,52,0.00,,,0.00,88,Wunderground v.1.15,2013-03-26 12:10:00,
2013-03-26 08:15:00,47.2,30.5,30.11,NW,325,8.0,19.0,52,0.00,,,0.00,109,Wunderground v.1.15,2013-03-26 12:15:00,
2013-03-26 08:20:00,47.3,30.5,30.11,NNW,333,8.0,19.0,52,0.00,,,0.00,125,Wunderground v.1.15,2013-03-26 12:20:00,
2013-03-26 08:26:00,47.4,30.6,30.11,NNE,19,7.0,19.0,52,0.00,,,0.00,144,Wunderground v.1.15,2013-03-26 12:26:00,
2013-03-26 08:31:00,47.5,31.2,30.11,NNW,331,7.0,19.0,53,0.00,,,0.00,160,Wunderground v.1.15,2013-03-26 12:31:00,
2013-03-26 08:36:00,47.7,31.9,30.12,NNW,340,8.0,19.0,54,0.00,,,0.00,176,Wunderground v.1.15,2013-03-26 12:36:00,
2013-03-26 08:42:00,47.9,31.6,30.12,North,354,8.0,14.0,53,0.00,,,0.00,197,Wunderground v.1.15,2013-03-26 12:42:00,
2013-03-26 08:47:00,47.9,31.6,30.13,NW,317,9.0,14.0,53,0.00,,,0.00,216,Wunderground v.1.15,2013-03-26 12:47:00,
2013-03-26 08:53:00,48.0,31.2,30.13,NNW,331,10.0,13.0,52,0.00,,,0.00,237,Wunderground v.1.15,2013-03-26 12:53:00,
2013-03-26 08:58:00,48.0,32.1,30.13,NNW,334,10.0,15.0,54,0.00,,,0.00,253,Wunderground v.1.15,2013-03-26 12:58:00,
2013-03-26 09:04:00,48.3,32.4,30.14,North,353,7.0,20.0,54,0.00,,,0.00,278,Wunderground v.1.15,2013-03-26 13:04:00,
2013-03-26 09:09:00,48.3,32.4,30.14,North,356,9.0,20.0,54,0.00,,,0.00,299,Wunderground v.1.15,2013-03-26 13:09:00,
2013-03-26 09:15:00,48.4,32.5,30.14,NNW,330,11.0,20.0,54,0.00,,,0.00,325,Wunderground v.1.15,2013-03-26 13:15:00,
2013-03-26 09:20:00,48.7,32.8,30.14,NNW,342,8.0,8.0,54,0.00,,,0.00,346,Wunderground v.1.15,2013-03-26 13:20:00,
2013-03-26 09:25:00,49.1,33.2,30.14,NNE,15,6.0,20.0,54,0.00,,,0.00,366,Wunderground v.1.15,2013-03-26 13:25:00,
2013-03-26 09:32:00,49.1,32.7,30.14,NNW,347,9.0,20.0,53,0.00,,,0.00,394,Wunderground v.1.15,2013-03-26 13:32:00,
2013-03-26 09:38:00,49.1,32.2,30.14,NW,325,10.0,20.0,52,0.00,,,0.00,418,Wunderground v.1.15,2013-03-26 13:38:00,
2013-03-26 09:43:00,49.2,33.7,30.14,NW,313,9.0,19.0,55,0.00,,,0.00,434,Wunderground v.1.15,2013-03-26 13:43:00,
2013-03-26 09:48:00,49.3,32.4,30.14,NNW,330,11.0,19.0,52,0.00,,,0.00,454,Wunderground v.1.15,2013-03-26 13:48:00,
2013-03-26 09:54:00,49.6,33.2,30.14,NW,319,10.0,13.0,53,0.00,,,0.00,475,Wunderground v.1.15,2013-03-26 13:54:00,
2013-03-26 09:59:00,49.9,31.5,30.14,NW,315,9.0,18.0,49,0.00,,,0.00,497,Wunderground v.1.15,2013-03-26 13:59:00,
2013-03-26 10:04:00,49.9,32.0,30.14,NNW,336,10.0,21.0,50,0.00,,,0.00,517,Wunderground v.1.15,2013-03-26 14:04:00,
2013-03-26 10:10:00,50.1,31.2,30.14,NW,320,10.0,10.0,48,0.00,,,0.00,538,Wunderground v.1.15,2013-03-26 14:10:00,
2013-03-26 10:15:00,50.4,31.9,30.14,NW,306,8.0,21.0,49,0.00,,,0.00,554,Wunderground v.1.15,2013-03-26 14:15:00,
2013-03-26 10:20:00,50.8,31.8,30.15,NNW,335,10.0,21.0,48,0.00,,,0.00,575,Wunderground v.1.15,2013-03-26 14:20:00,
2013-03-26 10:26:00,50.8,32.3,30.15,NNW,346,11.0,21.0,49,0.00,,,0.00,596,Wunderground v.1.15,2013-03-26 14:26:00,
2013-03-26 10:32:00,51.3,32.8,30.14,NNW,344,10.0,21.0,49,0.00,,,0.00,617,Wunderground v.1.15,2013-03-26 14:32:00,
2013-03-26 10:38:00,51.5,35.4,30.15,WNW,290,10.0,21.0,54,0.00,,,0.00,633,Wunderground v.1.15,2013-03-26 14:38:00,
2013-03-26 10:43:00,51.5,33.0,30.15,WNW,300,12.0,15.0,49,0.00,,,0.00,654,Wunderground v.1.15,2013-03-26 14:43:00,
2013-03-26 10:49:00,51.9,32.8,30.15,NNW,332,11.0,15.0,48,0.00,,,0.00,677,Wunderground v.1.15,2013-03-26 14:49:00,
2013-03-26 10:54:00,52.2,34.6,30.15,North,360,10.0,13.0,51,0.00,,,0.00,691,Wunderground v.1.15,2013-03-26 14:54:00,
2013-03-26 11:00:00,52.2,34.6,30.15,NNW,330,11.0,14.0,51,0.00,,,0.00,705,Wunderground v.1.15,2013-03-26 15:00:00,
2013-03-26 11:05:00,52.0,33.4,30.14,NW,311,12.0,21.0,49,0.00,,,0.00,722,Wunderground v.1.15,2013-03-26 15:05:00,
2013-03-26 11:11:00,52.3,33.2,30.14,WNW,296,12.0,21.0,48,0.00,,,0.00,745,Wunderground v.1.15,2013-03-26 15:11:00,
2013-03-26 11:16:00,52.6,36.4,30.14,NW,311,11.0,21.0,54,0.00,,,0.00,754,Wunderground v.1.15,2013-03-26 15:16:00,
2013-03-26 11:23:00,52.6,32.4,30.14,NW,323,16.0,21.0,46,0.00,,,0.00,780,Wunderground v.1.15,2013-03-26 15:23:00,
2013-03-26 11:29:00,52.8,36.6,30.14,NW,309,17.0,21.0,54,0.00,,,0.00,793,Wunderground v.1.15,2013-03-26 15:29:00,
2013-03-26 11:34:00,52.9,33.7,30.14,NW,326,15.0,21.0,48,0.00,,,0.00,802,Wunderground v.1.15,2013-03-26 15:34:00,
2013-03-26 11:39:00,53.3,36.1,30.15,WNW,302,15.0,24.0,52,0.00,,,0.00,817,Wunderground v.1.15,2013-03-26 15:39:00,
2013-03-26 11:45:00,53.5,36.3,30.14,NW,325,15.0,16.0,52,0.00,,,0.00,831,Wunderground v.1.15,2013-03-26 15:45:00,
2013-03-26 11:50:00,53.8,33.5,30.14,North,349,14.0,20.0,46,0.00,,,0.00,842,Wunderground v.1.15,2013-03-26 15:50:00,
2013-03-26 11:57:00,53.9,33.6,30.15,North,359,14.0,23.0,46,0.00,,,0.00,853,Wunderground v.1.15,2013-03-26 15:57:00,
2013-03-26 12:02:00,53.7,32.3,30.14,NNW,347,13.0,27.0,44,0.00,,,0.00,863,Wunderground v.1.15,2013-03-26 16:02:00,
2013-03-26 12:08:00,53.9,36.7,30.14,NW,317,15.0,27.0,52,0.00,,,0.00,874,Wunderground v.1.15,2013-03-26 16:08:00,
2013-03-26 12:13:00,54.1,35.9,30.14,WNW,298,14.0,27.0,50,0.00,,,0.00,886,Wunderground v.1.15,2013-03-26 16:13:00,
2013-03-26 12:19:00,54.1,35.3,30.14,NW,307,14.0,27.0,49,0.00,,,0.00,898,Wunderground v.1.15,2013-03-26 16:19:00,
2013-03-26 12:24:00,54.6,38.3,30.14,NW,315,13.0,27.0,54,0.00,,,0.00,902,Wunderground v.1.15,2013-03-26 16:24:00,
2013-03-26 12:30:00,55.4,34.9,30.14,NNW,343,12.0,12.0,46,0.00,,,0.00,911,Wunderground v.1.15,2013-03-26 16:30:00,
2013-03-26 12:35:00,55.3,34.3,30.14,NNW,330,13.0,27.0,45,0.00,,,0.00,919,Wunderground v.1.15,2013-03-26 16:35:00,
2013-03-26 12:41:00,55.3,39.9,30.14,WNW,290,14.0,22.0,56,0.00,,,0.00,925,Wunderground v.1.15,2013-03-26 16:41:00,
2013-03-26 12:47:00,55.4,34.4,30.14,WNW,300,13.0,22.0,45,0.00,,,0.00,933,Wunderground v.1.15,2013-03-26 16:47:00,
2013-03-26 12:53:00,55.7,36.3,30.14,WNW,301,14.0,15.0,48,0.00,,,0.00,939,Wunderground v.1.15,2013-03-26 16:53:00,
2013-03-26 12:58:00,55.7,37.8,30.13,West,281,15.0,15.0,51,0.00,,,0.00,947,Wunderground v.1.15,2013-03-26 16:58:00,
2013-03-26 13:04:00,56.0,35.5,30.13,WNW,294,14.0,27.0,46,0.00,,,0.00,947,Wunderground v.1.15,2013-03-26 17:04:00,
2013-03-26 13:09:00,56.4,34.7,30.13,WNW,297,14.0,27.0,44,0.00,,,0.00,953,Wunderground v.1.15,2013-03-26 17:09:00,
2013-03-26 13:15:00,56.4,36.9,30.13,NW,323,15.0,27.0,48,0.00,,,0.00,958,Wunderground v.1.15,2013-03-26 17:15:00,
2013-03-26 13:22:00,56.7,37.2,30.13,WNW,303,14.0,27.0,48,0.00,,,0.00,962,Wunderground v.1.15,2013-03-26 17:22:00,
2013-03-26 13:27:00,56.8,36.8,30.12,NW,319,15.0,27.0,47,0.00,,,0.00,965,Wunderground v.1.15,2013-03-26 17:27:00,
2013-03-26 13:33:00,56.8,35.1,30.13,WNW,302,16.0,27.0,44,0.00,,,0.00,965,Wunderground v.1.15,2013-03-26 17:33:00,
2013-03-26 13:38:00,57.3,31.9,30.12,NW,304,14.0,27.0,38,0.00,,,0.00,969,Wunderground v.1.15,2013-03-26 17:38:00,
2013-03-26 13:44:00,57.6,28.7,30.12,WNW,294,15.0,20.0,33,0.00,,,0.00,965,Wunderground v.1.15,2013-03-26 17:44:00,
2013-03-26 13:50:00,57.8,38.8,30.12,West,279,16.0,17.0,49,0.00,,,0.00,967,Wunderground v.1.15,2013-03-26 17:50:00,
2013-03-26 13:55:00,58.0,36.8,30.12,WNW,303,15.0,17.0,45,0.00,,,0.00,965,Wunderground v.1.15,2013-03-26 17:55:00,
2013-03-26 14:01:00,58.1,39.0,30.12,WNW,283,17.0,27.0,49,0.00,,,0.00,969,Wunderground v.1.15,2013-03-26 18:01:00,
2013-03-26 14:07:00,57.9,35.5,30.12,West,280,20.0,28.0,43,0.00,,,0.00,967,Wunderground v.1.15,2013-03-26 18:07:00,
2013-03-26 14:13:00,57.9,34.3,30.11,NW,308,18.0,28.0,41,0.00,,,0.00,958,Wunderground v.1.15,2013-03-26 18:13:00,
2013-03-26 14:18:00,58.2,33.3,30.12,NW,317,16.0,28.0,39,0.00,,,0.00,954,Wunderground v.1.15,2013-03-26 18:18:00,
2013-03-26 14:24:00,58.3,35.9,30.11,WNW,286,17.0,28.0,43,0.00,,,0.00,951,Wunderground v.1.15,2013-03-26 18:24:00,
2013-03-26 14:29:00,58.5,36.6,30.11,West,270,17.0,28.0,44,0.00,,,0.00,942,Wunderground v.1.15,2013-03-26 18:29:00,
2013-03-26 14:35:00,58.6,38.4,30.11,WNW,286,21.0,28.0,47,0.00,,,0.00,937,Wunderground v.1.15,2013-03-26 18:35:00,
2013-03-26 14:41:00,58.4,34.2,30.10,WNW,291,19.0,21.0,40,0.00,,,0.00,933,Wunderground v.1.15,2013-03-26 18:41:00,
2013-03-26 14:46:00,58.9,36.4,30.10,NW,307,14.0,22.0,43,0.00,,,0.00,919,Wunderground v.1.15,2013-03-26 18:46:00,
2013-03-26 14:51:00,59.1,36.6,30.10,West,278,13.0,18.0,43,0.00,,,0.00,916,Wunderground v.1.15,2013-03-26 18:51:00,
2013-03-26 14:57:00,59.5,34.5,30.10,West,279,15.0,26.0,39,0.00,,,0.00,916,Wunderground v.1.15,2013-03-26 18:57:00,
2013-03-26 15:02:00,59.6,38.2,30.10,WNW,285,17.0,32.0,45,0.00,,,0.00,902,Wunderground v.1.15,2013-03-26 19:02:00,
2013-03-26 15:08:00,59.3,37.4,30.10,WNW,292,16.0,32.0,44,0.00,,,0.00,891,Wunderground v.1.15,2013-03-26 19:08:00,
2013-03-26 15:14:00,59.5,39.2,30.10,WNW,284,16.0,32.0,47,0.00,,,0.00,886,Wunderground v.1.15,2013-03-26 19:14:00,
2013-03-26 15:20:00,59.8,40.6,30.10,West,270,16.0,32.0,49,0.00,,,0.00,875,Wunderground v.1.15,2013-03-26 19:20:00,
2013-03-26 15:25:00,59.4,39.1,30.10,WNW,283,19.0,32.0,47,0.00,,,0.00,865,Wunderground v.1.15,2013-03-26 19:25:00,
2013-03-26 15:32:00,59.3,36.2,30.09,WNW,292,21.0,32.0,42,0.00,,,0.00,849,Wunderground v.1.15,2013-03-26 19:32:00,
2013-03-26 15:38:00,59.1,33.5,30.09,WNW,302,22.0,32.0,38,0.00,,,0.00,838,Wunderground v.1.15,2013-03-26 19:38:00,
2013-03-26 15:43:00,59.0,37.7,30.10,NW,304,23.0,28.0,45,0.00,,,0.00,826,Wunderground v.1.15,2013-03-26 19:43:00,
2013-03-26 15:49:00,59.3,38.5,30.09,WNW,286,18.0,28.0,46,0.00,,,0.00,814,Wunderground v.1.15,2013-03-26 19:49:00,
2013-03-26 15:54:00,59.6,39.3,30.09,West,266,17.0,27.0,47,0.00,,,0.00,803,Wunderground v.1.15,2013-03-26 19:54:00,
2013-03-26 15:59:00,59.3,36.2,30.09,WNW,291,20.0,27.0,42,0.00,,,0.00,788,Wunderground v.1.15,2013-03-26 19:59:00,
2013-03-26 16:05:00,59.2,39.0,30.09,West,279,22.0,32.0,47,0.00,,,0.00,775,Wunderground v.1.15,2013-03-26 20:05:00,
2013-03-26 16:10:00,59.1,41.5,30.09,West,277,24.0,24.0,52,0.00,,,0.00,756,Wunderground v.1.15,2013-03-26 20:10:00,
2013-03-26 16:17:00,58.9,38.1,30.09,WNW,286,21.0,32.0,46,0.00,,,0.00,738,Wunderground v.1.15,2013-03-26 20:17:00,
2013-03-26 16:22:00,59.1,37.8,30.09,West,269,20.0,32.0,45,0.00,,,0.00,722,Wunderground v.1.15,2013-03-26 20:22:00,
2013-03-26 16:28:00,59.1,35.4,30.09,WNW,290,21.0,32.0,41,0.00,,,0.00,707,Wunderground v.1.15,2013-03-26 20:28:00,
2013-03-26 16:33:00,59.5,39.2,30.09,West,281,21.0,32.0,47,0.00,,,0.00,689,Wunderground v.1.15,2013-03-26 20:33:00,
2013-03-26 16:39:00,59.2,37.9,30.09,WNW,288,20.0,32.0,45,0.00,,,0.00,668,Wunderground v.1.15,2013-03-26 20:39:00,
2013-03-26 16:44:00,59.3,39.6,30.09,West,275,19.0,23.0,48,0.00,,,0.00,656,Wunderground v.1.15,2013-03-26 20:44:00,
2013-03-26 16:50:00,59.3,37.4,30.09,WNW,296,21.0,21.0,44,0.00,,,0.00,640,Wunderground v.1.15,2013-03-26 20:50:00,
2013-03-26 16:57:00,59.1,30.7,30.09,NW,307,19.0,21.0,34,0.00,,,0.00,613,Wunderground v.1.15,2013-03-26 20:57:00,
2013-03-26 17:02:00,58.8,31.2,30.09,WNW,296,19.0,35.0,35,0.00,,,0.00,598,Wunderground v.1.15,2013-03-26 21:02:00,
2013-03-26 17:08:00,58.6,31.7,30.09,NW,323,18.0,35.0,36,0.00,,,0.00,577,Wunderground v.1.15,2013-03-26 21:08:00,
2013-03-26 17:13:00,58.7,31.1,30.09,NW,304,16.0,35.0,35,0.00,,,0.00,555,Wunderground v.1.15,2013-03-26 21:13:00,
2013-03-26 17:19:00,58.7,30.4,30.09,NW,308,17.0,35.0,34,0.00,,,0.00,534,Wunderground v.1.15,2013-03-26 21:19:00,
2013-03-26 17:24:00,59.0,30.6,30.09,WNW,292,16.0,35.0,34,0.00,,,0.00,519,Wunderground v.1.15,2013-03-26 21:24:00,
2013-03-26 17:30:00,58.8,34.5,30.09,NW,317,15.0,15.0,40,0.00,,,0.00,496,Wunderground v.1.15,2013-03-26 21:30:00,
2013-03-26 17:37:00,58.8,39.1,30.09,WNW,289,15.0,35.0,48,0.00,,,0.00,466,Wunderground v.1.15,2013-03-26 21:37:00,
2013-03-26 17:42:00,58.7,38.0,30.09,West,269,19.0,23.0,46,0.00,,,0.00,448,Wunderground v.1.15,2013-03-26 21:42:00,
2013-03-26 17:48:00,58.6,34.3,30.10,NW,315,20.0,24.0,40,0.00,,,0.00,425,Wunderground v.1.15,2013-03-26 21:48:00,
2013-03-26 17:53:00,58.5,39.9,30.10,West,277,17.0,25.0,50,0.00,,,0.00,404,Wunderground v.1.15,2013-03-26 21:53:00,
2013-03-26 17:59:00,58.4,39.3,30.10,WNW,296,19.0,25.0,49,0.00,,,0.00,380,Wunderground v.1.15,2013-03-26 21:59:00,
2013-03-26 18:04:00,58.3,39.7,30.10,West,273,19.0,34.0,50,0.00,,,0.00,360,Wunderground v.1.15,2013-03-26 22:04:00,
2013-03-26 18:09:00,58.0,33.2,30.10,WNW,295,15.0,34.0,39,0.00,,,0.00,339,Wunderground v.1.15,2013-03-26 22:09:00,
2013-03-26 18:15:00,58.0,40.0,30.10,West,279,14.0,34.0,51,0.00,,,0.00,315,Wunderground v.1.15,2013-03-26 22:15:00,
2013-03-26 18:20:00,58.0,40.0,30.10,West,276,16.0,34.0,51,0.00,,,0.00,294,Wunderground v.1.15,2013-03-26 22:20:00,
2013-03-26 18:26:00,58.0,40.0,30.10,WNW,294,18.0,34.0,51,0.00,,,0.00,269,Wunderground v.1.15,2013-03-26 22:26:00,
2013-03-26 18:32:00,57.7,41.6,30.11,West,278,19.0,34.0,55,0.00,,,0.00,241,Wunderground v.1.15,2013-03-26 22:32:00,
2013-03-26 18:38:00,57.5,38.5,30.11,WNW,287,17.0,34.0,49,0.00,,,0.00,213,Wunderground v.1.15,2013-03-26 22:38:00,
2013-03-26 18:43:00,57.4,41.4,30.11,West,278,14.0,17.0,55,0.00,,,0.00,188,Wunderground v.1.15,2013-03-26 22:43:00,
2013-03-26 18:48:00,57.4,38.9,30.11,WNW,285,15.0,19.0,50,0.00,,,0.00,162,Wunderground v.1.15,2013-03-26 22:48:00,
2013-03-26 18:54:00,57.0,39.5,30.12,West,277,15.0,20.0,52,0.00,,,0.00,134,Wunderground v.1.15,2013-03-26 22:54:00,
2013-03-26 18:59:00,56.8,39.4,30.12,WNW,284,16.0,20.0,52,0.00,,,0.00,111,Wunderground v.1.15,2013-03-26 22:59:00,
2013-03-26 19:05:00,56.6,38.2,30.12,WNW,302,17.0,29.0,50,0.00,,,0.00,86,Wunderground v.1.15,2013-03-26 23:05:00,
2013-03-26 19:10:00,56.2,37.8,30.12,WNW,289,15.0,15.0,50,0.00,,,0.00,67,Wunderground v.1.15,2013-03-26 23:10:00,
2013-03-26 19:15:00,55.9,40.0,30.13,WNW,295,14.0,29.0,55,0.00,,,0.00,51,Wunderground v.1.15,2013-03-26 23:15:00,
2013-03-26 19:22:00,55.5,38.1,30.13,WNW,286,13.0,29.0,52,0.00,,,0.00,30,Wunderground v.1.15,2013-03-26 23:22:00,
2013-03-26 19:28:00,55.1,35.2,30.13,WNW,303,12.0,29.0,47,0.00,,,0.00,19,Wunderground v.1.15,2013-03-26 23:28:00,
2013-03-26 19:34:00,54.6,39.2,30.14,WNW,292,11.0,29.0,56,0.00,,,0.00,11,Wunderground v.1.15,2013-03-26 23:34:00,
2013-03-26 19:39:00,54.5,40.0,30.14,West,277,12.0,29.0,58,0.00,,,0.00,7,Wunderground v.1.15,2013-03-26 23:39:00,
2013-03-26 19:44:00,54.7,40.2,30.14,WNW,283,16.0,20.0,58,0.00,,,0.00,0,Wunderground v.1.15,2013-03-26 23:44:00,
2013-03-26 19:50:00,54.6,39.7,30.14,West,277,15.0,17.0,57,0.00,,,0.00,0,Wunderground v.1.15,2013-03-26 23:50:00,
2013-03-26 19:55:00,54.1,36.9,30.14,NW,306,12.0,17.0,52,0.00,,,0.00,0,Wunderground v.1.15,2013-03-26 23:55:00,
2013-03-26 20:01:00,53.9,42.0,30.15,West,274,12.0,19.0,64,0.00,,,0.00,0,Wunderground v.1.15,2013-03-27 00:01:00,
2013-03-26 20:06:00,54.1,40.1,30.15,WNW,283,15.0,24.0,59,0.00,,,0.00,0,Wunderground v.1.15,2013-03-27 00:06:00,
2013-03-26 20:11:00,54.3,41.6,30.15,West,280,17.0,24.0,62,0.00,,,0.00,0,Wunderground v.1.15,2013-03-27 00:11:00,
2013-03-26 20:17:00,54.3,42.4,30.16,WNW,290,16.0,24.0,64,0.00,,,0.00,0,Wunderground v.1.15,2013-03-27 00:17:00,
2013-03-26 20:22:00,53.7,38.8,30.16,West,281,13.0,18.0,57,0.00,,,0.00,0,Wunderground v.1.15,2013-03-27 00:22:00,
2013-03-26 20:27:00,53.7,40.6,30.16,West,277,13.0,24.0,61,0.00,,,0.00,0,Wunderground v.1.15,2013-03-27 00:27:00,
2013-03-26 20:33:00,53.7,40.1,30.16,WNW,294,15.0,24.0,60,0.00,,,0.00,0,Wunderground v.1.15,2013-03-27 00:33:00,
2013-03-26 20:38:00,53.5,39.9,30.16,NW,313,14.0,24.0,60,0.00,,,0.00,0,Wunderground v.1.15,2013-03-27 00:38:00,
2013-03-26 20:43:00,53.0,41.1,30.17,West,272,12.0,14.0,64,0.00,,,0.00,0,Wunderground v.1.15,2013-03-27 00:43:00,
2013-03-26 20:49:00,53.0,39.9,30.17,NW,306,13.0,18.0,61,0.00,,,0.00,0,Wunderground v.1.15,2013-03-27 00:49:00,
2013-03-26 20:54:00,52.6,39.1,30.17,WNW,283,14.0,17.0,60,0.00,,,0.00,0,Wunderground v.1.15,2013-03-27 00:54:00,
2013-03-26 20:59:00,52.3,38.8,30.17,WNW,296,12.0,17.0,60,0.00,,,0.00,0,Wunderground v.1.15,2013-03-27 00:59:00,
2013-03-26 21:05:00,51.8,37.5,30.17,WNW,296,11.0,24.0,58,0.00,,,0.00,0,Wunderground v.1.15,2013-03-27 01:05:00,
2013-03-26 21:11:00,51.6,38.6,30.18,WNW,292,11.0,24.0,61,0.00,,,0.00,0,Wunderground v.1.15,2013-03-27 01:11:00,
2013-03-26 21:17:00,51.6,39.0,30.18,WNW,293,11.0,24.0,62,0.00,,,0.00,0,Wunderground v.1.15,2013-03-27 01:17:00,
2013-03-26 21:23:00,51.5,38.5,30.19,WNW,303,11.0,24.0,61,0.00,,,0.00,0,Wunderground v.1.15,2013-03-27 01:23:00,
2013-03-26 21:28:00,51.3,39.9,30.19,West,279,10.0,24.0,65,0.00,,,0.00,0,Wunderground v.1.15,2013-03-27 01:28:00,
2013-03-26 21:34:00,51.1,39.3,30.19,WNW,294,10.0,24.0,64,0.00,,,0.00,0,Wunderground v.1.15,2013-03-27 01:34:00,
2013-03-26 21:39:00,50.9,39.1,30.19,WNW,298,10.0,24.0,64,0.00,,,0.00,0,Wunderground v.1.15,2013-03-27 01:39:00,
2013-03-26 21:45:00,50.8,39.5,30.20,WNW,292,11.0,13.0,65,0.00,,,0.00,0,Wunderground v.1.15,2013-03-27 01:45:00,
2013-03-26 21:50:00,50.9,39.1,30.20,WNW,288,12.0,12.0,64,0.00,,,0.00,0,Wunderground v.1.15,2013-03-27 01:50:00,
2013-03-26 21:57:00,50.9,40.7,30.20,WNW,283,11.0,15.0,68,0.00,,,0.00,0,Wunderground v.1.15,2013-03-27 01:57:00,
2013-03-26 22:02:00,50.4,37.9,30.20,WNW,283,12.0,22.0,62,0.00,,,0.00,0,Wunderground v.1.15,2013-03-27 02:02:00,
2013-03-26 22:08:00,50.3,39.0,30.21,WNW,303,13.0,22.0,65,0.00,,,0.00,0,Wunderground v.1.15,2013-03-27 02:08:00,
2013-03-26 22:13:00,50.1,39.6,30.21,WNW,301,12.0,22.0,67,0.00,,,0.00,0,Wunderground v.1.15,2013-03-27 02:13:00,
2013-03-26 22:18:00,50.2,40.0,30.21,WNW,293,12.0,22.0,68,0.00,,,0.00,0,Wunderground v.1.15,2013-03-27 02:18:00,
2013-03-26 22:24:00,50.0,38.3,30.21,WNW,297,12.0,22.0,64,0.00,,,0.00,0,Wunderground v.1.15,2013-03-27 02:24:00,
2013-03-26 22:30:00,49.8,39.3,30.21,WNW,294,10.0,22.0,67,0.00,,,0.00,0,Wunderground v.1.15,2013-03-27 02:30:00,
2013-03-26 22:35:00,49.6,39.1,30.21,WNW,302,10.0,22.0,67,0.00,,,0.00,0,Wunderground v.1.15,2013-03-27 02:35:00,
2013-03-26 22:41:00,49.4,38.5,30.21,WNW,299,10.0,10.0,66,0.00,,,0.00,0,Wunderground v.1.15,2013-03-27 02:41:00,
2013-03-26 22:47:00,49.1,38.2,30.21,NW,306,10.0,13.0,66,0.00,,,0.00,0,Wunderground v.1.15,2013-03-27 02:47:00,
2013-03-26 22:53:00,48.9,38.4,30.21,WNW,296,9.0,11.0,67,0.00,,,0.00,0,Wunderground v.1.15,2013-03-27 02:53:00,
2013-03-26 22:59:00,48.8,37.6,30.22,WNW,302,10.0,15.0,65,0.00,,,0.00,0,Wunderground v.1.15,2013-03-27 02:59:00,
2013-03-26 23:04:00,48.7,37.5,30.22,NW,304,10.0,21.0,65,0.00,,,0.00,0,Wunderground v.1.15,2013-03-27 03:04:00,
2013-03-26 23:10:00,48.6,37.7,30.22,NW,317,11.0,21.0,66,0.00,,,0.00,0,Wunderground v.1.15,2013-03-27 03:10:00,
2013-03-26 23:15:00,48.6,38.1,30.22,NW,308,10.0,21.0,67,0.00,,,0.00,0,Wunderground v.1.15,2013-03-27 03:15:00,
2013-03-26 23:21:00,48.6,38.5,30.22,WNW,301,9.0,21.0,68,0.00,,,0.00,0,Wunderground v.1.15,2013-03-27 03:21:00,
2013-03-26 23:27:00,48.6,38.5,30.22,NNW,330,9.0,21.0,68,0.00,,,0.00,0,Wunderground v.1.15,2013-03-27 03:27:00,
2013-03-26 23:32:00,48.5,38.0,30.22,NW,317,9.0,21.0,67,0.00,,,0.00,0,Wunderground v.1.15,2013-03-27 03:32:00,
2013-03-26 23:37:00,48.5,38.8,30.22,NNW,332,9.0,21.0,69,0.00,,,0.00,0,Wunderground v.1.15,2013-03-27 03:37:00,
2013-03-26 23:43:00,48.4,37.9,30.22,NW,323,8.0,16.0,67,0.00,,,0.00,0,Wunderground v.1.15,2013-03-27 03:43:00,
2013-03-26 23:48:00,48.3,37.8,30.22,WNW,298,8.0,16.0,67,0.00,,,0.00,0,Wunderground v.1.15,2013-03-27 03:48:00,
2013-03-26 23:54:00,48.2,38.5,30.22,NNW,333,8.0,9.0,69,0.00,,,0.00,0,Wunderground v.1.15,2013-03-27 03:54:00,
2013-03-26 23:59:00,48.1,38.4,30.22,NNW,335,6.0,9.0,69,0.00,,,0.00,0,Wunderground v.1.15,2013-03-27 03:59:00,